Dati Storici

Data ora Umidita' aria (%) Temperatura aria (°C) Rad globale (W/m²) Gonioanemometro (°) Tacoanemometro (m/s) Pioggia (mm)
10-06-2020 01:30 85.7 % 16.312 -50.112 1.321 0 0
10-06-2020 01:20 85.5 % 16.483 -69.086 -0.001 0 0
10-06-2020 01:10 85 % 16.59 -54.205 0.003 0 0
10-06-2020 01:00 84 % 16.776 -52.787 1.74 0 0
10-06-2020 00:50 82.7 % 16.971 -64.569 -0.003 0 0
10-06-2020 00:40 81.5 % 17.071 -51.108 -0.005 0 0
10-06-2020 00:30 80.4 % 17.204 -79.728 -0.005 0 0
10-06-2020 00:20 79.4 % 17.332 -50.488 -0.005 0 0
10-06-2020 00:10 79 % 17.429 -61.705 -0.003 0 0
10-06-2020 00:00 77.8 % 17.563 -70.46 -0.003 0 0
09-06-2020 23:50 76 % 17.707 -55.801 0.034 0 0
09-06-2020 23:40 74.2 % 17.826 -61.358 -0.005 0 0
09-06-2020 23:30 72.6 % 17.958 -74.151 -0.005 0 0
09-06-2020 23:20 71.8 % 18.061 -70.511 7.941 0 0
09-06-2020 23:10 71.6 % 18.111 -74.635 -0.006 0 0
09-06-2020 23:00 71.5 % 18.21 -53.895 -0.006 0 0
09-06-2020 22:50 71.3 % 18.348 -60.041 0.79 0 0
09-06-2020 22:40 72.4 % 18.398 -77.131 0.666 0 0
09-06-2020 22:30 75.5 % 18.434 -53.185 1.326 0 0
09-06-2020 22:20 76.4 % 18.634 -50.544 0.518 0 0

I dati sono presentati in modo automatico a scopo informativo. In seguito a verifica i dati possono subire modifiche o essere invalidati e non riportati negli archivi definitivi.